Regional Weather Roundup
Issued by NWS Sioux Falls, SD

Home | Current Version | Previous Version | Text Only | Print | Product List | Glossary Off
Versions: 1 2 3 4 5 6 7 8 9 10 11 12 13 14 15 16 17 18 19 20 21 22 23 24 25 26 27 28 29 30 31 32 33 34 35 36 37 38 39 40 41 42 43 44 45 46 47 48 49 50

000
ASUS43 KFSD 270402
RWRFSD

WEATHER ROUNDUP FOR SE SOUTH DAKOTA/SW MINNESOTA/NW IOWA
NATIONAL WEATHER SERVICE SIOUX FALLS SD
1100 PM CDT THU APR 26 2018

NOTE: "FAIR" INDICATES FEW OR NO CLOUDS BELOW 12,000 FEET WITH NO
SIGNIFICANT WEATHER AND OR OBSTRUCTIONS TO VISIBILITY.


SDZ038>040-050-052>070-270500-
SOUTHEAST SOUTH DAKOTA

CITY           SKY/WX    TMP DP  RH WIND       PRES   REMARKS
BROOKINGS      CLEAR     44  33  65 E5        30.03R
CHAMBERLAIN    CLEAR     47  32  55 SW5       30.05S
HURON          CLEAR     46  33  60 SW7       30.00F
MADISON        FAIR      45  34  65 SW3       30.03F
MITCHELL       CLEAR     49  34  56 SW8       30.03F
SIOUX FALLS    CLEAR     42  32  67 CALM      30.03S
WINNER         FAIR      50  30  46 SW8       30.07F
YANKTON        CLEAR     45  33  63 SW6       30.05S
$$

MNZ071-072-080-081-089-090-097-098-270500-
SOUTHWEST MINNESOTA

CITY           SKY/WX    TMP DP  RH WIND       PRES   REMARKS
FAIRMONT       CLEAR     44  31  60 NW12      30.00S
JACKSON        CLEAR     41  32  70 NW8       30.01F
LUVERNE        CLEAR     39  32  75 CALM      30.04S
MARSHALL       CLEAR     43  36  76 SW9       30.00F
MONTEVIDEO     CLEAR     45  34  65 W3        29.98F
PIPESTONE      CLEAR    N/A N/A N/A CALM      30.03S
REDWOOD FALLS  CLEAR     45  31  58 W6        29.98F
TRACY          CLEAR     43  36  77 SW7       30.00F
WINDOM         CLEAR     43  25  49 W8        30.01F
WORTHINGTON    CLEAR     40  35  83 NW6       30.03F
$$

IAZ001>003-012>014-020>022-031-032-NEZ013-014-SDZ071-270500-
NORTHWEST IOWA

CITY           SKY/WX    TMP DP  RH WIND       PRES   REMARKS
CHEROKEE       CLEAR     41  32  71 CALM      30.04S
DENISON        CLEAR     45  30  57 N3        30.06S
ESTHERVILLE    CLEAR     41  34  76 NW10      30.01S
LE MARS        CLEAR     43  30  61 CALM      30.05R
ORANGE CITY    CLEAR     50  34  53 N5        30.04S
SHELDON        CLEAR     39  34  81 CALM      30.02S
SIOUX CITY     CLEAR     45  29  53 NW3       30.05S
SPENCER        CLEAR     42  34  73 N7        30.02F
STORM LAKE     CLEAR     45  32  61 N9        30.03S
$$

ABBREVIATIONS USED IN REMARKS
   TC - TEMPERATURE IN CELSIUS
  WCI - WIND CHILL INDEX
   HX - HEAT INDEX
  VSB - VISIBILITY





USA.gov is the U.S. government's official web portal to all federal, state and local government web resources and services.